Location: Kalberh�ni
(46.4610°N, 7.2453°E)
Time: 08:21:40
(UTC+00:00)

Cosmos 2360 Rocket - Visible Passes

Search period start: 28 October 2021 00:00
Search period end: 07 November 2021 00:00
Orbit: 832 x 846 km, 71.0° (Epoch: 28 October)

Date Brightness Start Highest point End Pass type
(mag) Time Alt. Az. Time Alt. Az. Time Alt. Az.
28 Oct 4.5 02:29:04 15° SE 02:29:04 15° SE 02:30:06 10° SE visible
28 Oct 3.5 04:10:57 22° SW 04:10:57 22° SW 04:13:19 10° SSW visible
28 Oct 2.3 17:12:35 10° S 17:18:04 55° ESE 17:23:35 10° NE visible
28 Oct 4.0 18:57:30 10° WSW 19:02:22 29° NW 19:07:17 10° N visible
29 Oct 4.3 03:57:24 11° SSW 03:57:24 11° SSW 03:57:41 10° SSW visible
29 Oct 2.4 16:56:52 10° S 17:02:18 51° ESE 17:07:48 10° NE visible
29 Oct 3.9 18:41:38 10° WSW 18:46:34 30° NW 18:51:33 10° N visible
30 Oct 3.8 18:25:45 10° WSW 18:30:45 32° NW 18:35:49 10° NNE visible
31 Oct 3.8 18:09:52 10° WSW 18:14:58 33° NW 18:20:05 10° NNE visible
01 Nov 3.7 17:54:01 10° WSW 17:59:09 35° NW 18:04:22 10° NNE visible
02 Nov 3.6 17:38:09 10° WSW 17:43:21 37° NW 17:48:37 10° NNE visible
03 Nov 3.5 17:22:17 10° WSW 17:27:34 39° NW 17:32:52 10° NNE visible
03 Nov 5.0 19:12:50 10° NW 19:13:18 10° NNW 19:13:46 10° NNW visible
04 Nov 3.4 17:06:26 10° SW 17:11:46 41° NW 17:17:08 10° NNE visible
04 Nov 4.9 18:56:18 10° NW 18:57:27 11° NNW 18:58:36 10° NNW visible
05 Nov 3.3 16:50:36 10° SW 16:55:58 43° NW 17:01:23 10° NNE visible
05 Nov 4.9 18:40:02 10° NW 18:41:36 11° NNW 18:43:09 10° NNW visible
06 Nov 3.3 16:34:45 10° SW 16:40:10 46° NW 16:45:39 10° NNE visible
06 Nov 4.8 18:23:52 10° NW 18:25:44 12° NNW 18:27:37 10° NNW visible
